Location: Newark
(34.6000°S, 58.3833°W)
Time: 13:18:57
(UTC+00:00)

ISS - Pass Details

Date: 30 October 2019
Orbit: 412 x 421 km, 51.6° (Epoch: 22 November)

Event Time Altitude Azimuth Distance (km) Brightness Sun altitude
Rises 00:59:16 0° 212° (SSW) 2,381 1.2 -28.9°
Reaches altitude 10° 01:02:17 10° 183° (S) 1,514 -0.4 -29.4°
Enters shadow 01:02:27 11° 181° (S) 1,482 -0.5 -29.4°
